When you browse on this site, cookies collect data to enhance your experience and personalize the content and advertising you see.
Visit our Privacy Policy to learn more. By continuing to use the site, you agree to this use of cookies and data.
  • en Suisse
  • Liste des pays
  • À 7 jours
  • Température de l'eau
  • Carte satellitaire
  • Carte météo
  • Widgets météo
  • user-avatar
    Se connecter

    Météo par heure à Bartym

    Ce jour, 18 Novembre, Dimanche

    Heure Température Précipitation Vent Pression Humidité
    00:00 -6°C° 0.1 mm 3 m/s 734 mmHg 85%
    01:00 -6°C° 0.1 mm 3 m/s 734 mmHg 86%
    02:00 -6°C° 0.1 mm 3 m/s 734 mmHg 87%
    03:00 -6°C° 0.1 mm 3 m/s 734 mmHg 88%
    04:00 -6°C° 0.1 mm 3 m/s 734 mmHg 89%
    05:00 -6°C° 0.1 mm 3 m/s 733 mmHg 88%
    06:00 -5°C° 0.1 mm 4 m/s 733 mmHg 88%
    07:00 -5°C° 0.1 mm 4 m/s 733 mmHg 87%
    08:00 -5°C° 0.1 mm 4 m/s 733 mmHg 85%
    09:00 -5°C° 0.1 mm 4 m/s 733 mmHg 82%
    10:00 -5°C° 0.1 mm 4 m/s 733 mmHg 79%
    11:00 -5°C° 0 mm 4 m/s 733 mmHg 78%
    12:00 -4°C° 0 mm 4 m/s 733 mmHg 77%
    13:00 -4°C° 0 mm 4 m/s 733 mmHg 76%
    14:00 -5°C° 0.1 mm 4 m/s 733 mmHg 78%
    15:00 -5°C° 0.1 mm 3 m/s 734 mmHg 81%
    16:00 -5°C° 0.1 mm 3 m/s 734 mmHg 83%
    17:00 -5°C° 0 mm 3 m/s 734 mmHg 81%
    18:00 -5°C° 0 mm 3 m/s 734 mmHg 79%
    19:00 -5°C° 0 mm 3 m/s 734 mmHg 78%
    20:00 -5°C° 0 mm 3 m/s 734 mmHg 75%
    21:00 -5°C° 0 mm 3 m/s 734 mmHg 72%
    22:00 -5°C° 0 mm 3 m/s 734 mmHg 70%
    23:00 -6°C° 0 mm 3 m/s 735 mmHg 71%

    Demain, 19 Novembre, Lundi

    Heure Température Précipitation Vent Pression Humidité
    00:00 -6°C° 0 mm 3 m/s 735 mmHg 72%
    01:00 -6°C° 0 mm 3 m/s 735 mmHg 73%
    02:00 -6°C° 0 mm 3 m/s 735 mmHg 76%
    03:00 -6°C° 0 mm 3 m/s 735 mmHg 78%
    04:00 -6°C° 0 mm 3 m/s 735 mmHg 81%
    05:00 -6°C° 0 mm 3 m/s 735 mmHg 82%
    06:00 -6°C° 0 mm 3 m/s 735 mmHg 84%
    07:00 -6°C° 0 mm 3 m/s 735 mmHg 86%
    08:00 -6°C° 0 mm 3 m/s 736 mmHg 85%
    09:00 -5°C° 0 mm 3 m/s 736 mmHg 85%
    10:00 -5°C° 0 mm 3 m/s 736 mmHg 85%
    11:00 -5°C° 0 mm 3 m/s 736 mmHg 85%
    12:00 -4°C° 0 mm 3 m/s 736 mmHg 85%
    13:00 -4°C° 0 mm 3 m/s 736 mmHg 85%
    14:00 -3°C° 0.1 mm 2 m/s 736 mmHg 87%
    15:00 -3°C° 0.1 mm 2 m/s 736 mmHg 89%
    16:00 -4°C° 0.1 mm 2 m/s 736 mmHg 91%
    17:00 -4°C° 0.1 mm 2 m/s 736 mmHg 92%
    18:00 -4°C° 0.1 mm 2 m/s 736 mmHg 93%
    19:00 -4°C° 0.1 mm 2 m/s 736 mmHg 93%
    20:00 -4°C° 0.1 mm 2 m/s 736 mmHg 94%
    21:00 -4°C° 0.1 mm 2 m/s 735 mmHg 94%
    22:00 -4°C° 0.1 mm 2 m/s 735 mmHg 95%
    23:00 -4°C° 0.2 mm 2 m/s 735 mmHg 95%

    Après-demain, 20 Novembre, Mardi

    Heure Température Précipitation Vent Pression Humidité
    00:00 -4°C° 0.2 mm 2 m/s 735 mmHg 95%
    01:00 -4°C° 0.2 mm 2 m/s 735 mmHg 95%
    02:00 -4°C° 0.2 mm 2 m/s 735 mmHg 96%
    03:00 -4°C° 0.2 mm 2 m/s 735 mmHg 96%
    04:00 -4°C° 0.2 mm 2 m/s 735 mmHg 96%
    05:00 -4°C° 0.2 mm 2 m/s 735 mmHg 96%
    06:00 -4°C° 0.2 mm 2 m/s 734 mmHg 95%
    07:00 -4°C° 0.2 mm 2 m/s 734 mmHg 95%
    08:00 -4°C° 0.1 mm 2 m/s 734 mmHg 93%
    09:00 -4°C° 0.1 mm 2 m/s 734 mmHg 92%
    10:00 -5°C° 0.1 mm 3 m/s 734 mmHg 90%
    11:00 -5°C° 0 mm 3 m/s 734 mmHg 88%
    12:00 -4°C° 0 mm 2 m/s 734 mmHg 86%
    13:00 -4°C° 0 mm 2 m/s 733 mmHg 84%
    14:00 -6°C° 0 mm 3 m/s 733 mmHg 84%
    15:00 -6°C° 0 mm 3 m/s 733 mmHg 84%
    16:00 -6°C° 0 mm 3 m/s 733 mmHg 84%
    17:00 -7°C° 0 mm 3 m/s 733 mmHg 84%
    18:00 -7°C° 0 mm 3 m/s 732 mmHg 85%
    19:00 -7°C° 0 mm 3 m/s 732 mmHg 85%
    20:00 -7°C° 0.2 mm 3 m/s 732 mmHg 87%
    21:00 -7°C° 0.2 mm 3 m/s 731 mmHg 88%
    22:00 -8°C° 0.2 mm 4 m/s 731 mmHg 90%
    23:00 -8°C° 0.4 mm 4 m/s 731 mmHg 90%

    21 Novembre, Mercredi

    Heure Température Précipitation Vent Pression Humidité
    00:00 -8°C° 0.4 mm 4 m/s 730 mmHg 90%
    01:00 -8°C° 0.4 mm 5 m/s 730 mmHg 90%
    02:00 -8°C° 0.3 mm 5 m/s 729 mmHg 90%
    03:00 -8°C° 0.3 mm 5 m/s 729 mmHg 90%
    04:00 -8°C° 0.3 mm 5 m/s 729 mmHg 90%
    05:00 -8°C° 0.2 mm 5 m/s 728 mmHg 90%
    06:00 -8°C° 0.2 mm 5 m/s 728 mmHg 90%
    07:00 -7°C° 0.2 mm 5 m/s 727 mmHg 90%
    08:00 -7°C° 0.1 mm 5 m/s 727 mmHg 89%
    09:00 -7°C° 0.1 mm 5 m/s 727 mmHg 88%
    10:00 -7°C° 0.1 mm 5 m/s 727 mmHg 88%
    11:00 -7°C° 0.1 mm 5 m/s 727 mmHg 87%
    12:00 -7°C° 0.1 mm 5 m/s 726 mmHg 87%
    13:00 -7°C° 0.1 mm 5 m/s 726 mmHg 87%
    14:00 -7°C° 0.3 mm 5 m/s 726 mmHg 88%
    15:00 -7°C° 0.3 mm 5 m/s 726 mmHg 89%
    16:00 -7°C° 0.3 mm 5 m/s 726 mmHg 89%
    17:00 -7°C° 0.1 mm 4 m/s 725 mmHg 90%
    18:00 -7°C° 0.1 mm 4 m/s 725 mmHg 90%
    19:00 -7°C° 0.1 mm 4 m/s 725 mmHg 90%
    20:00 -6°C° 0.1 mm 3 m/s 725 mmHg 90%
    21:00 -6°C° 0.1 mm 3 m/s 725 mmHg 91%
    22:00 -6°C° 0.1 mm 3 m/s 725 mmHg 91%
    23:00 -7°C° 0.1 mm 3 m/s 725 mmHg 92%

    22 Novembre, Jeudi

    Heure Température Précipitation Vent Pression Humidité
    00:00 -8°C° 0.1 mm 3 m/s 725 mmHg 92%
    01:00 -8°C° 0.1 mm 2 m/s 725 mmHg 93%
    02:00 -8°C° 0 mm 2 m/s 725 mmHg 93%
    03:00 -8°C° 0 mm 2 m/s 725 mmHg 94%
    04:00 -9°C° 0 mm 2 m/s 725 mmHg 94%
    05:00 -9°C° 0 mm 2 m/s 725 mmHg 95%
    06:00 -9°C° 0 mm 2 m/s 725 mmHg 95%
    07:00 -9°C° 0 mm 2 m/s 725 mmHg 95%
    08:00 -9°C° 0 mm 2 m/s 724 mmHg 93%
    09:00 -10°C° 0 mm 3 m/s 724 mmHg 91%
    10:00 -9°C° 0 mm 3 m/s 724 mmHg 89%
    11:00 -10°C° 0 mm 4 m/s 723 mmHg 87%
    12:00 -10°C° 0 mm 4 m/s 722 mmHg 85%
    13:00 -10°C° 0 mm 5 m/s 722 mmHg 82%
    14:00 -11°C° 0.1 mm 5 m/s 721 mmHg 84%
    15:00 -11°C° 0.1 mm 6 m/s 721 mmHg 85%
    16:00 -11°C° 0.1 mm 6 m/s 720 mmHg 87%
    17:00 -11°C° 0.3 mm 6 m/s 720 mmHg 88%
    18:00 -11°C° 0.3 mm 5 m/s 719 mmHg 89%
    19:00 -11°C° 0.3 mm 5 m/s 719 mmHg 90%
    20:00 -10°C° 0.3 mm 4 m/s 719 mmHg 90%
    21:00 -9°C° 0.3 mm 4 m/s 718 mmHg 91%
    22:00 -8°C° 0.3 mm 3 m/s 718 mmHg 92%
    23:00 -10°C° 0.2 mm 4 m/s 718 mmHg 91%

    23 Novembre, Vendredi

    Heure Température Précipitation Vent Pression Humidité
    00:00 -10°C° 0.2 mm 4 m/s 718 mmHg 89%
    01:00 -11°C° 0.2 mm 4 m/s 718 mmHg 88%
    02:00 -12°C° 0 mm 3 m/s 719 mmHg 88%
    03:00 -13°C° 0 mm 3 m/s 719 mmHg 89%
    04:00 -14°C° 0 mm 3 m/s 719 mmHg 89%
    05:00 -15°C° 0 mm 3 m/s 720 mmHg 91%
    06:00 -15°C° 0 mm 2 m/s 720 mmHg 94%
    07:00 -16°C° 0 mm 2 m/s 721 mmHg 96%
    08:00 -15°C° 0.1 mm 3 m/s 721 mmHg 94%
    09:00 -14°C° 0.1 mm 3 m/s 722 mmHg 91%
    10:00 -14°C° 0.1 mm 4 m/s 723 mmHg 89%
    11:00 -14°C° 0.1 mm 4 m/s 723 mmHg 86%
    12:00 -12°C° 0.1 mm 4 m/s 723 mmHg 83%
    13:00 -13°C° 0.1 mm 5 m/s 724 mmHg 80%
    14:00 -14°C° 0 mm 4 m/s 724 mmHg 82%
    15:00 -15°C° 0 mm 4 m/s 724 mmHg 84%
    16:00 -15°C° 0 mm 3 m/s 725 mmHg 86%
    17:00 -16°C° 0 mm 4 m/s 725 mmHg 86%
    18:00 -17°C° 0 mm 4 m/s 725 mmHg 87%
    19:00 -17°C° 0 mm 4 m/s 726 mmHg 87%
    20:00 -16°C° 0.1 mm 4 m/s 726 mmHg 87%
    21:00 -15°C° 0.1 mm 5 m/s 726 mmHg 87%
    22:00 -14°C° 0.1 mm 5 m/s 726 mmHg 87%
    23:00 -14°C° 0.1 mm 5 m/s 726 mmHg 87%
    Voir plus